Torna al catalogo

METEOR 2-6 DEB

AttivoPO
NORAD 36309·DEBRIS·🇷🇺 Russia

Lanciato Sep 9, 1980 da Plesetsk Cosmodrome

Loading…

Prossimi Passaggi (prossime 24 ore)

TLE

In scadenzaSource: Space-Track

Epoca: Sep 7, 2026, 13:08 UTC

1 36309U 80073M   26250.54734353  .00012640  00000-0  18960-2 0  9997
2 36309  81.1981 193.2619 0015117 136.4106 223.8298 14.74442638693586

Traccia METEOR 2-6 DEB in tempo reale con AllMySat

Download on the App Store